Flag for U.S.A. Weather past 2 weeks in Albany, New York, U.S.A.

Now
73 °F

Broken clouds.


Feels Like: 77 °F
Forecast: 45 / 72 °F
Wind: 13 mph from Northwest

Location: Albany County Airport

Current Time: Apr 18, 2015 at 4:01:50 PM

Latest Report: Apr 18, 2015 at 2:51 PM


Visibility: 10 mi

Pressure: 29.83 "Hg

Humidity: 32%

Dew point: 41 °F

Location of AlbanyLocation

Historic Weather in Albany — Graph

°F

Albany temperature yesterday

Maximum temperature yesterday: 66 °F (at 4:51 PM)
Minimum temperature yesterday: 50 °F (at 2:51 AM)
Average temperature yesterday: 56 °F

Past Weeks' High & Low Weather Summary

 TemperatureHumidityPressure
High74 °F (Apr 13, 2:51 PM)93% (Apr 18, 5:51 AM)30.49 "Hg (Apr 18, 5:51 AM)
Low27 °F (Apr 5, 4:51 AM)14% (Apr 16, 4:51 PM)29.54 "Hg (Apr 4, 2:51 AM)
Average48 °F55%30.13 "Hg
* Reported Apr 3 2:51 PM — Apr 18 2:51 PM, Albany, Weather by CustomWeather, © 2015

Note: Actual official high and low records may vary slightly from our data, if they occured in-between our weather recording intervals... More about our weather records

Advertising

Albany weather history for previous 24 hours

 ConditionsComfort  
Time TempWeatherWind HumidityBarometerVisibility
2:51 PM
Sat, Apr 18
73 °FBroken clouds.13 mph32%29.83 "Hg10 mi
1:51 PM71 °FPartly sunny.7 mph32%29.85 "Hg10 mi
12:51 PM70 °FPartly sunny.6 mph35%29.88 "Hg10 mi
11:51 AM70 °FBroken clouds.7 mph35%29.92 "Hg10 mi
10:51 AM66 °FPassing clouds.8 mph40%29.94 "Hg10 mi
9:51 AM62 °FSunny.7 mph52%29.96 "Hg10 mi
8:51 AM55 °FSunny.No wind72%29.98 "Hg10 mi
7:51 AM50 °FSunny.3 mph86%29.97 "Hg10 mi
6:51 AM43 °FFog.3 mph89%29.97 "Hg10 mi
5:51 AM40 °FLight fog.No wind93%29.96 "Hg10 mi
4:51 AM43 °FFog.5 mph89%29.95 "Hg10 mi
3:51 AM44 °FFog.No wind89%29.95 "Hg10 mi
2:51 AM45 °FClear.3 mph86%29.95 "Hg10 mi
1:51 AM45 °FClear.No wind86%29.96 "Hg10 mi
12:51 AM50 °FClear.No wind80%29.97 "Hg10 mi
11:51 PM
Fri, Apr 17
50 °FClear.5 mph80%29.97 "Hg10 mi
10:51 PM55 °FClear.8 mph72%29.96 "Hg10 mi
9:51 PM55 °FClear.12 mph69%29.96 "Hg10 mi
8:51 PM56 °FClear.8 mph67%29.95 "Hg10 mi
7:51 PM58 °FPassing clouds.13 mph62%29.93 "Hg10 mi
6:51 PM61 °FPassing clouds.16 mph58%29.92 "Hg10 mi
5:51 PM63 °FPassing clouds.17 mph56%29.92 "Hg10 mi
4:51 PM66 °FPartly sunny.16 mph52%29.91 "Hg10 mi
4:01 PM64 °FBroken clouds.14 mph61%29.92 "Hg10 mi
Weather by CustomWeather, © 2015

See weather overviewHow to use our weather pages